Volver al catálogo

STARLINK-37460

ActivoComunicacionesSSO
NORAD 68803·PAYLOAD·🇺🇸 United States

Lanzado Apr 23, 2026 desde Vandenberg Space Force Base

Loading…

Próximos Pases (próximas 24 horas)

TLE

ActualizadoSource: CelesTrak SupGP

Época: Sep 14, 2026, 22:34 UTC

1 68803C 26089B   26257.94076389  .00082871  00000+0  25733-2 0  2572
2 68803  97.2845 103.7054 0001881  93.3748 214.3580 15.33386838    16

Sigue STARLINK-37460 en tiempo real con AllMySat

Download on the App Store